DIJAN EDXW-EDWY

Flight info

Callsign DIJAN
Flight time 0h 39m
Altitude 8000
Route EDXH/N0180F070 DCT EDWG
Aircraft S22T/L-SDGRY/S

Departure

Time 2026-04-28 20:03
Airport Westerland Sylt Airport (EDXW)

Arrival

Time 2026-04-28 20:42
Airport Norderney Airport (EDWY)
Time Latitude Longitude Altitude Speed Heading
2026-04-28 19:37 54.91278 8.32476 53 ft 0 kts 245°
2026-04-28 19:57 54.91275 8.32471 53 ft 0 kts 214°
2026-04-28 19:58 54.91266 8.32501 53 ft 8 kts 58°
2026-04-28 19:58 54.91223 8.32603 53 ft 16 kts 146°
2026-04-28 19:58 54.91142 8.32747 53 ft 18 kts 128°
2026-04-28 19:58 54.91049 8.32934 53 ft 23 kts 127°
2026-04-28 19:59 54.90918 8.33138 53 ft 28 kts 147°
2026-04-28 19:59 54.90783 8.33216 53 ft 19 kts 177°
2026-04-28 19:59 54.90630 8.33237 53 ft 25 kts 175°
2026-04-28 19:59 54.90448 8.33307 53 ft 29 kts 148°
2026-04-28 20:00 54.90309 8.33525 53 ft 27 kts 120°
2026-04-28 20:00 54.90250 8.33858 53 ft 31 kts 97°
2026-04-28 20:00 54.90238 8.34148 53 ft 18 kts 78°
2026-04-28 20:00 54.90262 8.34384 53 ft 22 kts 82°
2026-04-28 20:01 54.90290 8.34668 53 ft 26 kts 83°
2026-04-28 20:01 54.90316 8.34925 53 ft 23 kts 82°
2026-04-28 20:01 54.90384 8.35167 54 ft 17 kts 28°
2026-04-28 20:01 54.90434 8.35149 54 ft 0 kts 323°
2026-04-28 20:02 54.90460 8.35117 54 ft 30 kts 326°
2026-04-28 20:02 54.90837 8.34644 102 ft 89 kts 320°
2026-04-28 20:02 54.91309 8.33909 402 ft 96 kts 315°
2026-04-28 20:03 54.91788 8.33006 664 ft 110 kts 315°
2026-04-28 20:03 54.92379 8.32039 966 ft 117 kts 318°
2026-04-28 20:03 54.92979 8.31042 1328 ft 122 kts 323°
2026-04-28 20:03 54.93657 8.30128 1705 ft 125 kts 314°
2026-04-28 20:04 54.93664 8.28600 2056 ft 132 kts 245°
2026-04-28 20:04 54.93046 8.27426 2448 ft 132 kts 227°
2026-04-28 20:04 54.92384 8.26362 2763 ft 131 kts 212°
2026-04-28 20:04 54.91524 8.25879 3006 ft 127 kts 189°
2026-04-28 20:05 54.90596 8.25712 2983 ft 147 kts 179°
2026-04-28 20:05 54.89667 8.25794 3393 ft 127 kts 171°
2026-04-28 20:05 54.88733 8.26009 3513 ft 136 kts 166°
2026-04-28 20:05 54.87814 8.26198 3703 ft 139 kts 180°
2026-04-28 20:06 54.86845 8.26102 3927 ft 137 kts 179°
2026-04-28 20:06 54.85851 8.26130 3944 ft 152 kts 175°
2026-04-28 20:06 54.84763 8.26121 3990 ft 157 kts 188°
2026-04-28 20:06 54.83714 8.25624 4119 ft 157 kts 197°
2026-04-28 20:07 54.82662 8.25137 4229 ft 158 kts 191°
2026-04-28 20:07 54.81941 8.24882 4255 ft 161 kts 189°
2026-04-28 20:07 54.80481 8.24566 4461 ft 156 kts 183°
2026-04-28 20:07 54.79382 8.24422 4496 ft 161 kts 182°
2026-04-28 20:08 54.78276 8.24282 4661 ft 157 kts 180°
2026-04-28 20:08 54.77174 8.24237 4715 ft 161 kts 181°
2026-04-28 20:08 54.76060 8.24196 4861 ft 157 kts 174°
2026-04-28 20:08 54.74970 8.24437 4937 ft 160 kts 172°
2026-04-28 20:09 54.73865 8.24553 5067 ft 159 kts 176°
2026-04-28 20:09 54.72755 8.24609 5161 ft 160 kts 173°
2026-04-28 20:09 54.71647 8.24747 5278 ft 159 kts 171°
2026-04-28 20:09 54.70563 8.24950 5379 ft 159 kts 168°
2026-04-28 20:10 54.69461 8.25128 5496 ft 158 kts 167°
2026-04-28 20:10 54.68348 8.25434 5486 ft 165 kts 165°
2026-04-28 20:10 54.67210 8.25784 5489 ft 167 kts 165°
2026-04-28 20:10 54.66058 8.26161 5496 ft 169 kts 164°
2026-04-28 20:11 54.64901 8.26558 5501 ft 170 kts 163°
2026-04-28 20:11 54.63741 8.26973 5504 ft 170 kts 163°
2026-04-28 20:11 54.62581 8.27402 5502 ft 171 kts 162°
2026-04-28 20:11 54.61422 8.27844 5506 ft 171 kts 163°
2026-04-28 20:12 54.60244 8.27589 5522 ft 176 kts 204°
2026-04-28 20:12 54.59184 8.26515 5523 ft 177 kts 210°
2026-04-28 20:12 54.58107 8.25480 5526 ft 177 kts 206°
2026-04-28 20:12 54.57378 8.24840 5527 ft 177 kts 205°
2026-04-28 20:13 54.55902 8.23567 5523 ft 177 kts 205°
2026-04-28 20:13 54.54797 8.22614 5525 ft 178 kts 205°
2026-04-28 20:13 54.53691 8.21658 5523 ft 178 kts 205°
2026-04-28 20:13 54.52571 8.20699 5537 ft 184 kts 205°
2026-04-28 20:14 54.51407 8.19702 5631 ft 187 kts 205°
2026-04-28 20:14 54.50243 8.18694 5744 ft 188 kts 205°
2026-04-28 20:14 54.49072 8.17683 5859 ft 189 kts 205°
2026-04-28 20:14 54.47899 8.16670 5984 ft 189 kts 205°
2026-04-28 20:15 54.46722 8.15657 6095 ft 190 kts 204°
2026-04-28 20:15 54.45535 8.14638 6205 ft 191 kts 204°
2026-04-28 20:15 54.44352 8.13618 6322 ft 190 kts 204°
2026-04-28 20:15 54.43165 8.12600 6444 ft 191 kts 204°
2026-04-28 20:16 54.41993 8.11594 6558 ft 191 kts 204°
2026-04-28 20:16 54.40802 8.10573 6673 ft 191 kts 204°
2026-04-28 20:16 54.39609 8.09550 6792 ft 191 kts 204°
2026-04-28 20:16 54.38417 8.08530 6900 ft 191 kts 204°
2026-04-28 20:17 54.37223 8.07508 6997 ft 192 kts 204°
2026-04-28 20:17 54.36027 8.06484 7106 ft 192 kts 204°
2026-04-28 20:17 54.34831 8.05463 7212 ft 192 kts 204°
2026-04-28 20:17 54.33633 8.04438 7315 ft 193 kts 204°
2026-04-28 20:18 54.32838 8.03761 7382 ft 193 kts 204°
2026-04-28 20:18 54.31636 8.02734 7485 ft 193 kts 204°
2026-04-28 20:18 54.30429 8.01706 7590 ft 194 kts 204°
2026-04-28 20:18 54.29222 8.00677 7693 ft 194 kts 204°
2026-04-28 20:19 54.28014 7.99649 7793 ft 194 kts 204°
2026-04-28 20:19 54.26805 7.98619 7899 ft 193 kts 205°
2026-04-28 20:19 54.25605 7.97600 7996 ft 194 kts 205°
2026-04-28 20:19 54.24385 7.96561 7993 ft 198 kts 205°
2026-04-28 20:20 54.23141 7.95506 8007 ft 200 kts 204°
2026-04-28 20:20 54.21889 7.94442 8013 ft 202 kts 204°
2026-04-28 20:20 54.20627 7.93371 8015 ft 202 kts 204°
2026-04-28 20:20 54.19365 7.92301 8012 ft 203 kts 204°
2026-04-28 20:21 54.18029 7.91608 8008 ft 201 kts 181°
2026-04-28 20:21 54.16639 7.91607 8009 ft 199 kts 175°
2026-04-28 20:21 54.15257 7.91599 8003 ft 196 kts 177°
2026-04-28 20:21 54.13924 7.91579 8003 ft 188 kts 176°
2026-04-28 20:22 54.12632 7.91582 7989 ft 184 kts 176°
2026-04-28 20:22 54.11380 7.91587 7988 ft 181 kts 176°
2026-04-28 20:22 54.10129 7.91590 7988 ft 179 kts 176°
2026-04-28 20:22 54.08883 7.91592 7990 ft 178 kts 175°
2026-04-28 20:23 54.07645 7.91592 7988 ft 178 kts 176°
2026-04-28 20:23 54.06409 7.91594 7989 ft 177 kts 175°
2026-04-28 20:23 54.05177 7.91592 7989 ft 177 kts 175°
2026-04-28 20:23 54.03946 7.91593 7988 ft 177 kts 176°
2026-04-28 20:24 54.02716 7.91593 7987 ft 176 kts 175°
2026-04-28 20:24 54.01488 7.91593 7989 ft 176 kts 175°
2026-04-28 20:24 54.00257 7.91594 7991 ft 177 kts 175°
2026-04-28 20:24 53.99023 7.91593 7990 ft 178 kts 175°
2026-04-28 20:25 53.97782 7.91594 7992 ft 178 kts 175°
2026-04-28 20:25 53.96544 7.91593 7993 ft 178 kts 175°
2026-04-28 20:25 53.95301 7.91593 7994 ft 178 kts 175°
2026-04-28 20:25 53.94061 7.91600 7990 ft 178 kts 175°
2026-04-28 20:26 53.92820 7.91619 7992 ft 178 kts 174°
2026-04-28 20:26 53.91577 7.91649 7935 ft 178 kts 174°
2026-04-28 20:26 53.90344 7.91664 7749 ft 177 kts 175°
2026-04-28 20:26 53.89112 7.91666 7571 ft 177 kts 175°
2026-04-28 20:27 53.87884 7.91656 7378 ft 176 kts 175°
2026-04-28 20:27 53.86678 7.91643 7197 ft 175 kts 175°
2026-04-28 20:27 53.85463 7.91625 7016 ft 174 kts 175°
2026-04-28 20:27 53.84261 7.91598 6770 ft 172 kts 175°
2026-04-28 20:28 53.83060 7.91553 6416 ft 173 kts 175°
2026-04-28 20:28 53.81862 7.91494 6092 ft 172 kts 175°
2026-04-28 20:28 53.80668 7.91424 5766 ft 172 kts 175°
2026-04-28 20:28 53.79477 7.91348 5457 ft 171 kts 175°
2026-04-28 20:29 53.78291 7.91263 5118 ft 170 kts 175°
2026-04-28 20:29 53.77100 7.91173 4822 ft 172 kts 175°
2026-04-28 20:29 53.75914 7.91097 4659 ft 169 kts 175°
2026-04-28 20:29 53.74740 7.91030 4474 ft 168 kts 174°
2026-04-28 20:30 53.73570 7.90968 4284 ft 168 kts 174°
2026-04-28 20:30 53.72407 7.90908 4139 ft 166 kts 174°
2026-04-28 20:30 53.71295 7.90326 3956 ft 177 kts 212°
2026-04-28 20:30 53.70652 7.88571 3783 ft 180 kts 261°
2026-04-28 20:31 53.70667 7.86503 3654 ft 175 kts 279°
2026-04-28 20:31 53.70769 7.84455 3497 ft 175 kts 278°
2026-04-28 20:31 53.70829 7.82393 3334 ft 176 kts 275°
2026-04-28 20:31 53.70791 7.80314 3181 ft 179 kts 268°
2026-04-28 20:32 53.70702 7.78220 3014 ft 179 kts 268°
2026-04-28 20:32 53.70611 7.76130 2868 ft 178 kts 268°
2026-04-28 20:32 53.70518 7.74048 2708 ft 178 kts 268°
2026-04-28 20:32 53.70426 7.71974 2546 ft 177 kts 268°
2026-04-28 20:33 53.70340 7.69903 2404 ft 176 kts 268°
2026-04-28 20:33 53.70257 7.67838 2248 ft 176 kts 268°
2026-04-28 20:33 53.70174 7.65777 2107 ft 176 kts 268°
2026-04-28 20:33 53.70092 7.63724 1975 ft 175 kts 269°
2026-04-28 20:34 53.70006 7.61703 1850 ft 175 kts 268°
2026-04-28 20:34 53.69922 7.59661 1732 ft 174 kts 268°
2026-04-28 20:34 53.69837 7.57624 1588 ft 174 kts 268°
2026-04-28 20:34 53.69754 7.55589 1443 ft 174 kts 268°
2026-04-28 20:35 53.69676 7.53552 1306 ft 174 kts 268°
2026-04-28 20:35 53.69598 7.51517 1198 ft 172 kts 268°
2026-04-28 20:35 53.69522 7.49514 1075 ft 171 kts 268°
2026-04-28 20:35 53.69445 7.47509 953 ft 171 kts 268°
2026-04-28 20:36 53.69374 7.45573 738 ft 161 kts 268°
2026-04-28 20:36 53.69314 7.43786 665 ft 143 kts 268°
2026-04-28 20:36 53.69257 7.42182 658 ft 132 kts 268°
2026-04-28 20:36 53.69199 7.40678 655 ft 126 kts 268°
2026-04-28 20:37 53.69129 7.39228 664 ft 123 kts 268°
2026-04-28 20:37 53.69062 7.37792 659 ft 122 kts 268°
2026-04-28 20:37 53.69005 7.36376 659 ft 120 kts 268°
2026-04-28 20:37 53.68949 7.34993 660 ft 117 kts 268°
2026-04-28 20:38 53.68896 7.33623 662 ft 117 kts 268°
2026-04-28 20:38 53.68843 7.32241 662 ft 119 kts 268°
2026-04-28 20:38 53.68800 7.30848 662 ft 119 kts 268°
2026-04-28 20:38 53.68752 7.29460 661 ft 118 kts 268°
2026-04-28 20:39 53.68745 7.28079 666 ft 118 kts 272°
2026-04-28 20:39 53.68744 7.26698 665 ft 118 kts 272°
2026-04-28 20:39 53.68741 7.25311 664 ft 117 kts 272°
2026-04-28 20:39 53.68752 7.23972 607 ft 113 kts 272°
2026-04-28 20:40 53.68764 7.22635 513 ft 113 kts 277°
2026-04-28 20:40 53.68801 7.21397 489 ft 98 kts 280°
2026-04-28 20:40 53.68963 7.20324 393 ft 89 kts 314°
2026-04-28 20:40 53.69439 7.19888 325 ft 74 kts
2026-04-28 20:41 53.69951 7.19817 248 ft 71 kts 17°
2026-04-28 20:41 53.70365 7.20156 182 ft 66 kts 51°
2026-04-28 20:41 53.70537 7.20873 127 ft 69 kts 71°
2026-04-28 20:41 53.70631 7.21673 65 ft 68 kts 77°
2026-04-28 20:42 53.70668 7.22436 15 ft 60 kts 82°
2026-04-28 20:42 53.70699 7.23066 4 ft 50 kts 85°
2026-04-28 20:42 53.70717 7.23543 6 ft 33 kts 85°
2026-04-28 20:42 53.70759 7.23673 10 ft 14 kts 287°
2026-04-28 20:43 53.70797 7.23457 6 ft 23 kts 285°
2026-04-28 20:43 53.70792 7.23152 6 ft 29 kts 262°
2026-04-28 20:43 53.70775 7.22891 7 ft 12 kts 294°
2026-04-28 20:43 53.70799 7.22783 9 ft 2 kts 254°
2026-04-28 20:44 53.70789 7.22758 9 ft 0 kts 194°